Regional Weather Roundup
Issued by NWS

Home | Current Version | Previous Version | Text Only | Print | Product List | Glossary On
Versions: 1 2 3 4 5 6 7 8 9 10 11 12 13 14 15 16 17 18 19 20 21 22 23 24 25 26 27 28 29 30 31 32 33 34 35 36 37 38 39 40 41 42 43 44 45 46 47 48 49 50
000
ASUS43 KFSD 280902
RWRSD

WEATHER ROUNDUP FOR SOUTH DAKOTA
NATIONAL WEATHER SERVICE SIOUX FALLS SD
300 AM CST SAT FEB 28 2015

NOTE: "FAIR" INDICATES FEW OR NO CLOUDS BELOW 12,000 FEET WITH NO
SIGNIFICANT WEATHER AND/OR OBSTRUCTIONS TO VISIBILITY.


SDZ001>005-009-010-012>017-281000-
NORTHWEST AND NORTH CENTRAL SOUTH DAKOTA

CITY           SKY/WX    TMP DP  RH WIND       PRES   REMARKS
BUFFALO          N/A      7   3  84 W8        29.93R WCI  -6
FAITH            N/A     11   4  73 S16       30.02F WCI  -6
MOBRIDGE       CLEAR     12   2  64 S12       30.10F WCI  -2
$$

SDZ012>016-024>037-041>051-057-063-072>074-281000-
SOUTHWEST AND SOUTH CENTRAL SOUTH DAKOTA

CITY           SKY/WX    TMP DP  RH WIND       PRES   REMARKS
RAPID CTY ARPT CLEAR      9   5  84 CALM      30.00S
PIERRE         CLEAR     10   1  67 SE10      30.17F WCI  -4
CUSTER         CLEAR      1  -3  83 NW3       29.85F
ELLSWORTH AFB  CLOUDY    11   5  76 S3        29.98S
PHILIP         CLEAR     14   5  67 SE3       30.09F
PINE RIDGE     CLEAR     13   5  70 S14G23    30.03S WCI  -2
WINNER         FAIR      13  -1  54 S10       30.21S WCI   0
$$

SDZ004>011-016>023-039-040-281000-
NORTHEAST SOUTH DAKOTA

CITY           SKY/WX    TMP DP  RH WIND       PRES   REMARKS
ABERDEEN       PTCLDY     8   0  69 S15       30.27F WCI  -9
WATERTOWN      CLEAR     -1  -6  79 S12       30.29F WCI -18
$$

SDZ017-020-022-023-036>040-048>070-281000-
SOUTHEAST SOUTH DAKOTA

CITY           SKY/WX    TMP DP  RH WIND       PRES   REMARKS
SIOUX FALLS    CLEAR      5  -2  72 S12       30.39F WCI -11
HURON          CLEAR      6   0  76 S14       30.31F WCI -11
MITCHELL       CLEAR      8   1  73 S13       30.35S WCI  -8
YANKTON        CLEAR      7   0  72 SE5       30.41F WCI  -2
$$

ABBREVIATIONS USED IN REMARKS
   TC - TEMPERATURE IN CELSIUS
  WCI - WIND CHILL INDEX
   HX - HEAT INDEX
  VSB - VISIBILITY




USA.gov is the U.S. government's official web portal to all federal, state and local government web resources and services.